Location: San Vito
(41.8833°N, 12.9833°E)
Time: 22:02:38
(UTC+00:00)

OAO 2 Rocket - Pass Details

Date: 17 November 2019
Orbit: 676 x 746 km, 35.0° (Epoch: 11 December)

Event Time Altitude Azimuth Distance (km) Brightness Sun altitude
Exits shadow 03:41:36 38° 187° (S) 1,073 4.1 -25.6°
Maximum altitude 03:41:45 39° 183° (S) 1,070 4.2 -25.6°
Drops below altitude 10° 03:46:27 10° 115° (ESE) 2,164 6.7 -24.7°
Sets 03:48:57 0° 108° (ESE) 3,069 7.9 -24.2°
